When you browse on this site, cookies collect data to enhance your experience and personalize the content and advertising you see.
Visit our Privacy Policy to learn more. By continuing to use the site, you agree to this use of cookies and data.
  • In United Kingdom
  • List of Countries
  • For 7 days
  • Water Temperature
  • Weather Map
  • Weather Widgets
  • user-avatar
    Login

    Hourly Weather Szarowicze

    Today, 26 February, Wednesday

    Time Temperature Precipitation Wind Pressure Humidity
    00:00 +5°C° 0.4 mm 5 mps 732 mmHg 92%
    01:00 +5°C° 0.4 mm 5 mps 732 mmHg 91%
    02:00 +5°C° 0 mm 4 mps 732 mmHg 89%
    03:00 +4°C° 0.1 mm 3 mps 732 mmHg 88%
    04:00 +3°C° 0.1 mm 3 mps 731 mmHg 88%
    05:00 +4°C° 0.1 mm 2 mps 731 mmHg 87%
    06:00 +4°C° 0 mm 2 mps 731 mmHg 88%
    07:00 +3°C° 0 mm 2 mps 731 mmHg 89%
    08:00 +4°C° 0 mm 1 mps 731 mmHg 87%
    09:00 +5°C° 0 mm 1 mps 731 mmHg 83%
    10:00 +5°C° 0 mm 2 mps 731 mmHg 78%
    11:00 +6°C° 0 mm 2 mps 731 mmHg 74%
    12:00 +6°C° 0.2 mm 2 mps 731 mmHg 77%
    13:00 +6°C° 0.2 mm 2 mps 731 mmHg 80%
    14:00 +6°C° 0 mm 2 mps 730 mmHg 83%
    15:00 +6°C° 0 mm 2 mps 730 mmHg 83%
    16:00 +6°C° 0 mm 2 mps 730 mmHg 82%
    17:00 +6°C° 0 mm 2 mps 730 mmHg 82%
    18:00 +6°C° 0 mm 2 mps 730 mmHg 84%
    19:00 +5°C° 0 mm 2 mps 730 mmHg 86%
    20:00 +5°C° 0 mm 2 mps 731 mmHg 88%
    21:00 +3°C° 0 mm 3 mps 731 mmHg 88%
    22:00 +3°C° 0 mm 4 mps 731 mmHg 88%
    23:00 +3°C° 0 mm 4 mps 731 mmHg 88%

    Tomorrow, 27 February, Thursday

    Time Temperature Precipitation Wind Pressure Humidity
    00:00 +1°C° 0 mm 5 mps 731 mmHg 87%
    01:00 +1°C° 0 mm 5 mps 732 mmHg 85%
    02:00 -1°C° 0 mm 6 mps 732 mmHg 84%
    03:00 -1°C° 0.1 mm 6 mps 732 mmHg 85%
    04:00 -1°C° 0.1 mm 6 mps 732 mmHg 86%
    05:00 -1°C° 0.1 mm 6 mps 733 mmHg 87%
    06:00 0°C° 0 mm 5 mps 733 mmHg 87%
    07:00 -1°C° 0 mm 5 mps 734 mmHg 87%
    08:00 -1°C° 0 mm 5 mps 734 mmHg 87%
    09:00 -1°C° 0 mm 6 mps 734 mmHg 80%
    10:00 -1°C° 0 mm 6 mps 735 mmHg 74%
    11:00 0°C° 0 mm 7 mps 735 mmHg 68%
    12:00 0°C° 0 mm 7 mps 735 mmHg 64%
    13:00 +2°C° 0 mm 7 mps 735 mmHg 61%
    14:00 +2°C° 0 mm 7 mps 736 mmHg 57%
    15:00 +2°C° 0.1 mm 7 mps 736 mmHg 59%
    16:00 +1°C° 0.1 mm 6 mps 736 mmHg 61%
    17:00 +1°C° 0.1 mm 6 mps 736 mmHg 62%
    18:00 0°C° 0 mm 5 mps 736 mmHg 65%
    19:00 -1°C° 0 mm 4 mps 736 mmHg 68%
    20:00 0°C° 0 mm 3 mps 736 mmHg 72%
    21:00 -1°C° 0 mm 3 mps 736 mmHg 74%
    22:00 -1°C° 0 mm 3 mps 736 mmHg 76%
    23:00 -1°C° 0 mm 3 mps 736 mmHg 79%

    Day after tomorrow, 28 February, Friday

    Time Temperature Precipitation Wind Pressure Humidity
    00:00 -1°C° 0 mm 3 mps 736 mmHg 82%
    01:00 -1°C° 0 mm 3 mps 736 mmHg 85%
    02:00 -1°C° 0 mm 3 mps 736 mmHg 88%
    03:00 -1°C° 0 mm 2 mps 736 mmHg 88%
    04:00 -1°C° 0 mm 2 mps 736 mmHg 89%
    05:00 -1°C° 0 mm 2 mps 736 mmHg 90%
    06:00 +1°C° 0 mm 1 mps 737 mmHg 89%
    07:00 +1°C° 0 mm 1 mps 737 mmHg 87%
    08:00 +1°C° 0 mm 1 mps 737 mmHg 86%
    09:00 +2°C° 0 mm 1 mps 737 mmHg 80%
    10:00 +3°C° 0 mm 1 mps 738 mmHg 74%
    11:00 +3°C° 0 mm 2 mps 738 mmHg 69%
    12:00 +3°C° 0 mm 2 mps 738 mmHg 66%
    13:00 +3°C° 0 mm 3 mps 739 mmHg 63%
    14:00 +3°C° 0 mm 3 mps 739 mmHg 61%
    15:00 +3°C° 0 mm 3 mps 740 mmHg 63%
    16:00 +3°C° 0 mm 3 mps 740 mmHg 66%
    17:00 +2°C° 0 mm 3 mps 741 mmHg 69%
    18:00 +2°C° 0 mm 3 mps 741 mmHg 72%
    19:00 0°C° 0 mm 4 mps 742 mmHg 76%
    20:00 0°C° 0 mm 4 mps 742 mmHg 80%
    21:00 -1°C° 0 mm 4 mps 742 mmHg 80%
    22:00 -1°C° 0 mm 4 mps 743 mmHg 81%
    23:00 -1°C° 0 mm 4 mps 743 mmHg 82%

    29 February, Saturday

    Time Temperature Precipitation Wind Pressure Humidity
    00:00 -2°C° 0 mm 5 mps 743 mmHg 83%
    01:00 -2°C° 0 mm 5 mps 744 mmHg 84%
    02:00 -2°C° 0 mm 5 mps 744 mmHg 85%
    03:00 -2°C° 0 mm 4 mps 744 mmHg 87%
    04:00 -2°C° 0 mm 4 mps 744 mmHg 90%
    05:00 -2°C° 0 mm 4 mps 744 mmHg 93%
    06:00 -2°C° 0 mm 4 mps 744 mmHg 92%
    07:00 -1°C° 0 mm 3 mps 745 mmHg 91%
    08:00 -1°C° 0 mm 3 mps 745 mmHg 90%
    09:00 0°C° 0 mm 3 mps 745 mmHg 87%
    10:00 +1°C° 0 mm 2 mps 745 mmHg 83%
    11:00 +2°C° 0 mm 2 mps 745 mmHg 80%
    12:00 +3°C° 0 mm 2 mps 745 mmHg 77%
    13:00 +2°C° 0 mm 3 mps 745 mmHg 74%
    14:00 +3°C° 0 mm 3 mps 745 mmHg 71%
    15:00 +3°C° 0 mm 3 mps 745 mmHg 70%
    16:00 +3°C° 0 mm 3 mps 745 mmHg 69%
    17:00 +3°C° 0 mm 3 mps 744 mmHg 67%
    18:00 +1°C° 0 mm 4 mps 744 mmHg 71%
    19:00 +1°C° 0 mm 4 mps 744 mmHg 74%
    20:00 0°C° 0 mm 5 mps 744 mmHg 78%
    21:00 0°C° 0 mm 5 mps 744 mmHg 79%
    22:00 0°C° 0 mm 5 mps 744 mmHg 80%
    23:00 -1°C° 0 mm 5 mps 743 mmHg 81%

    1 March, Sunday

    Time Temperature Precipitation Wind Pressure Humidity
    00:00 -2°C° 0 mm 6 mps 743 mmHg 79%
    01:00 -1°C° 0 mm 6 mps 743 mmHg 77%
    02:00 -1°C° 0 mm 6 mps 742 mmHg 75%
    03:00 -1°C° 0 mm 6 mps 742 mmHg 74%
    04:00 -1°C° 0 mm 6 mps 741 mmHg 72%
    05:00 -1°C° 0 mm 6 mps 741 mmHg 70%
    06:00 -1°C° 0 mm 6 mps 741 mmHg 68%
    07:00 -1°C° 0 mm 6 mps 741 mmHg 66%
    08:00 -1°C° 0 mm 6 mps 741 mmHg 64%
    09:00 +2°C° 0 mm 7 mps 740 mmHg 61%
    10:00 +3°C° 0 mm 7 mps 740 mmHg 59%
    11:00 +4°C° 0 mm 8 mps 740 mmHg 57%
    12:00 +3°C° 0.2 mm 7 mps 740 mmHg 65%
    13:00 +3°C° 0.2 mm 7 mps 740 mmHg 74%
    14:00 +2°C° 0.2 mm 7 mps 739 mmHg 82%
    15:00 +2°C° 0.6 mm 6 mps 739 mmHg 86%
    16:00 +2°C° 0.6 mm 5 mps 739 mmHg 90%
    17:00 +2°C° 0.6 mm 5 mps 739 mmHg 94%
    18:00 +3°C° 0.1 mm 4 mps 739 mmHg 94%
    19:00 +3°C° 0.1 mm 4 mps 739 mmHg 94%
    20:00 +3°C° 0.1 mm 3 mps 739 mmHg 93%
    21:00 +3°C° 0 mm 3 mps 740 mmHg 93%
    22:00 +3°C° 0 mm 4 mps 740 mmHg 93%
    23:00 +1°C° 0 mm 4 mps 740 mmHg 93%

    2 March, Monday

    Time Temperature Precipitation Wind Pressure Humidity
    00:00 +1°C° 0 mm 4 mps 740 mmHg 93%
    01:00 +1°C° 0 mm 4 mps 740 mmHg 93%
    02:00 +2°C° 0 mm 3 mps 740 mmHg 93%
    03:00 +2°C° 0.1 mm 3 mps 740 mmHg 94%
    04:00 +2°C° 0.1 mm 3 mps 740 mmHg 94%
    05:00 +2°C° 0.1 mm 3 mps 740 mmHg 95%
    06:00 +2°C° 0.2 mm 3 mps 740 mmHg 95%
    07:00 +2°C° 0.2 mm 3 mps 740 mmHg 94%
    08:00 +2°C° 0.2 mm 3 mps 740 mmHg 93%
    09:00 +3°C° 0 mm 3 mps 740 mmHg 85%
    10:00 +4°C° 0 mm 4 mps 740 mmHg 76%
    11:00 +5°C° 0 mm 5 mps 740 mmHg 68%
    12:00 +6°C° 0 mm 5 mps 740 mmHg 62%
    13:00 +7°C° 0 mm 5 mps 740 mmHg 55%
    14:00 +8°C° 0 mm 5 mps 740 mmHg 49%
    15:00 +8°C° 0 mm 5 mps 740 mmHg 50%
    16:00 +8°C° 0 mm 4 mps 740 mmHg 52%
    17:00 +9°C° 0 mm 3 mps 740 mmHg 53%
    18:00 +7°C° 0 mm 4 mps 740 mmHg 58%
    19:00 +6°C° 0 mm 4 mps 740 mmHg 62%
    20:00 +5°C° 0 mm 4 mps 740 mmHg 66%
    21:00 +4°C° 0 mm 4 mps 740 mmHg 69%
    22:00 +4°C° 0 mm 4 mps 741 mmHg 71%
    23:00 +3°C° 0 mm 4 mps 741 mmHg 73%
    Show more